| time (UTC) | temp C | wind direction | speed KPH | gust KPH | rain 1hr cm | rain 24hr cm | rain mn cm | humidity % | barometer mb |
| 20260906203602 | 39 | 71 | 3.2 | 3.2 | 0.00 | 0.00 | 0.00 | 34 | 1013.9 |
| 20260906203057 | 39 | 249 | 4.8 | 6.4 | 0.00 | 0.00 | 0.00 | 33 | 1013.9 |
| 20260906202553 | 40 | 277 | 3.2 | 4.8 | 0.00 | 0.00 | 0.00 | 33 | 1014.0 |
| 20260906202054 | 40 | 45 | 4.8 | 4.8 | 0.00 | 0.00 | 0.00 | 32 | 1014.2 |
| 20260906201553 | 40 | 349 | 0.0 | 4.8 | 0.00 | 0.00 | 0.00 | 34 | 1014.1 |
| 20260906201053 | 40 | 107 | 3.2 | 4.8 | 0.00 | 0.00 | 0.00 | 34 | 1014.2 |
| 20260906200549 | 40 | 15 | 0.0 | 3.2 | 0.00 | 0.00 | 0.00 | 33 | 1014.4 |
| 20260906200045 | 39 | 285 | 3.2 | 4.8 | 0.00 | 0.00 | 0.00 | 35 | 1014.4 |
| 20260906195540 | 39 | 21 | 3.2 | 9.7 | 0.00 | 0.00 | 0.00 | 35 | 1014.4 |
| 20260906195037 | 39 | 50 | 6.4 | 12.9 | 0.00 | 0.00 | 0.00 | 35 | 1014.5 |
| 20260906194533 | 39 | 67 | 3.2 | 4.8 | 0.00 | 0.00 | 0.00 | 33 | 1014.5 |
| 20260906194028 | 39 | 292 | 3.2 | 4.8 | 0.00 | 0.00 | 0.00 | 34 | 1014.6 |
| 20260906193528 | 39 | 118 | 0.0 | 4.8 | 0.00 | 0.00 | 0.00 | 35 | 1014.7 |
| 20260906193023 | 39 | 128 | 0.0 | 3.2 | 0.00 | 0.00 | 0.00 | 35 | 1014.8 |
| 20260906192519 | 38 | 129 | 0.0 | 1.6 | 0.00 | 0.00 | 0.00 | 35 | 1014.7 |
| 20260906192017 | 38 | 125 | 1.6 | 3.2 | 0.00 | 0.00 | 0.00 | 35 | 1014.8 |
| 20260906191513 | 38 | 68 | 1.6 | 4.8 | 0.00 | 0.00 | 0.00 | 37 | 1015.0 |
| 20260906191012 | 37 | 34 | 1.6 | 4.8 | 0.00 | 0.00 | 0.00 | 39 | 1015.2 |
| 20260906190511 | 38 | 36 | 1.6 | 3.2 | 0.00 | 0.00 | 0.00 | 38 | 1015.0 |
| 20260906190007 | 37 | 53 | 3.2 | 11.3 | 0.00 | 0.00 | 0.00 | 40 | 1015.0 |
| 20260906185505 | 37 | 85 | 0.0 | 4.8 | 0.00 | 0.00 | 0.00 | 41 | 1015.4 |
| 20260906185004 | 37 | 117 | 1.6 | 1.6 | 0.00 | 0.00 | 0.00 | 41 | 1015.5 |
| 20260906184500 | 37 | 334 | 0.0 | 1.6 | 0.00 | 0.00 | 0.00 | 40 | 1015.4 |
| 20260906183954 | 39 | 32 | 3.2 | 4.8 | 0.00 | 0.00 | 0.00 | 38 | 1015.4 |
| 20260906183450 | 38 | 357 | 0.0 | 1.6 | 0.00 | 0.00 | 0.00 | 39 | 1015.4 |
| 20260906182946 | 38 | 110 | 1.6 | 4.8 | 0.00 | 0.00 | 0.00 | 39 | 1015.6 |
| 20260906182436 | 38 | 283 | 1.6 | 6.4 | 0.00 | 0.00 | 0.00 | 38 | 1015.7 |
| 20260906181932 | 38 | 259 | 3.2 | 4.8 | 0.00 | 0.00 | 0.00 | 39 | 1015.8 |
| 20260906181427 | 38 | 271 | 3.2 | 4.8 | 0.00 | 0.00 | 0.00 | 38 | 1016.1 |
| 20260906180923 | 37 | 40 | 0.0 | 9.7 | 0.00 | 0.00 | 0.00 | 40 | 1016.1 |
| 20260906180418 | 38 | 0 | 6.4 | 6.4 | 0.00 | 0.00 | 0.00 | 39 | 1016.3 |
| 20260906175915 | 38 | 280 | 3.2 | 4.8 | 0.00 | 0.00 | 0.00 | 39 | 1016.3 |
| 20260906175410 | 37 | 278 | 0.0 | 4.8 | 0.00 | 0.00 | 0.00 | 40 | 1016.4 |
| 20260906174908 | 37 | 319 | 0.0 | 3.2 | 0.00 | 0.00 | 0.00 | 40 | 1016.4 |
| 20260906174403 | 38 | 20 | 3.2 | 9.7 | 0.00 | 0.00 | 0.00 | 40 | 1016.6 |
| 20260906173857 | 37 | 147 | 1.6 | 4.8 | 0.00 | 0.00 | 0.00 | 41 | 1016.6 |
| 20260906173353 | 38 | 28 | 1.6 | 4.8 | 0.00 | 0.00 | 0.00 | 40 | 1016.6 |
| 20260906172851 | 37 | 159 | 3.2 | 3.2 | 0.00 | 0.00 | 0.00 | 40 | 1016.8 |
| 20260906172348 | 37 | 240 | 3.2 | 4.8 | 0.00 | 0.00 | 0.00 | 41 | 1016.7 |
| 20260906171843 | 37 | 128 | 3.2 | 4.8 | 0.00 | 0.00 | 0.00 | 41 | 1016.9 |
| 20260906171338 | 38 | 74 | 1.6 | 3.2 | 0.00 | 0.00 | 0.00 | 40 | 1017.0 |
| 20260906170834 | 37 | 74 | 0.0 | 1.6 | 0.00 | 0.00 | 0.00 | 41 | 1017.2 |
| 20260906170330 | 36 | 75 | 0.0 | 3.2 | 0.00 | 0.00 | 0.00 | 44 | 1017.2 |
| 20260906165826 | 36 | 74 | 0.0 | 1.6 | 0.00 | 0.00 | 0.00 | 43 | 1017.1 |
| 20260906165325 | 36 | 74 | 0.0 | 3.2 | 0.00 | 0.00 | 0.00 | 44 | 1017.2 |
| 20260906164820 | 36 | 272 | 1.6 | 1.6 | 0.00 | 0.00 | 0.00 | 43 | 1017.2 |
| 20260906164319 | 36 | 166 | 1.6 | 1.6 | 0.00 | 0.00 | 0.00 | 44 | 1017.5 |
| 20260906163815 | 36 | 277 | 1.6 | 1.6 | 0.00 | 0.00 | 0.00 | 42 | 1017.2 |
| 20260906163312 | 35 | 268 | 3.2 | 3.2 | 0.00 | 0.00 | 0.00 | 44 | 1017.3 |
| 20260906162809 | 35 | 295 | 1.6 | 3.2 | 0.00 | 0.00 | 0.00 | 45 | 1017.3 |
| 20260906162308 | 35 | 288 | 3.2 | 3.2 | 0.00 | 0.00 | 0.00 | 45 | 1017.2 |
| 20260906161803 | 35 | 88 | 0.0 | 3.2 | 0.00 | 0.00 | 0.00 | 45 | 1017.3 |
| 20260906161302 | 35 | 170 | 1.6 | 1.6 | 0.00 | 0.00 | 0.00 | 45 | 1017.2 |
| 20260906160801 | 35 | 69 | 1.6 | 1.6 | 0.00 | 0.00 | 0.00 | 46 | 1017.2 |
| 20260906160256 | 35 | 69 | 0.0 | 4.8 | 0.00 | 0.00 | 0.00 | 48 | 1017.2 |
| 20260906155753 | 35 | 270 | 0.0 | 0.0 | 0.00 | 0.00 | 0.00 | 47 | 1017.2 |
| 20260906155248 | 35 | 270 | 0.0 | 0.0 | 0.00 | 0.00 | 0.00 | 49 | 1017.1 |
| 20260906154744 | 34 | 246 | 1.6 | 3.2 | 0.00 | 0.00 | 0.00 | 49 | 1017.0 |
| 20260906154238 | 35 | 273 | 1.6 | 6.4 | 0.00 | 0.00 | 0.00 | 49 | 1017.1 |
| 20260906153737 | 35 | 274 | 0.0 | 1.6 | 0.00 | 0.00 | 0.00 | 48 | 1017.2 |
| 20260906153231 | 33 | 274 | 0.0 | 4.8 | 0.00 | 0.00 | 0.00 | 50 | 1017.0 |
| 20260906152726 | 33 | 274 | 1.6 | 1.6 | 0.00 | 0.00 | 0.00 | 50 | 1017.1 |
| 20260906152221 | 33 | 274 | 0.0 | 1.6 | 0.00 | 0.00 | 0.00 | 52 | 1017.2 |
| 20260906151715 | 33 | 274 | 0.0 | 1.6 | 0.00 | 0.00 | 0.00 | 52 | 1017.0 |
| 20260906151211 | 32 | 274 | 1.6 | 3.2 | 0.00 | 0.00 | 0.00 | 53 | 1017.0 |
| 20260906150707 | 32 | 273 | 0.0 | 1.6 | 0.00 | 0.00 | 0.00 | 54 | 1017.0 |
| 20260906150201 | 32 | 273 | 0.0 | 1.6 | 0.00 | 0.00 | 0.00 | 55 | 1017.0 |
| 20260906145654 | 32 | 273 | 0.0 | 1.6 | 0.00 | 0.00 | 0.00 | 54 | 1017.0 |
| 20260906145148 | 32 | 273 | 0.0 | 1.6 | 0.00 | 0.00 | 0.00 | 54 | 1017.1 |
| 20260906144648 | 32 | 274 | 1.6 | 3.2 | 0.00 | 0.00 | 0.00 | 53 | 1017.0 |
| 20260906144143 | 32 | 275 | 0.0 | 3.2 | 0.00 | 0.00 | 0.00 | 55 | 1017.0 |
| 20260906143643 | 31 | 275 | 1.6 | 1.6 | 0.00 | 0.00 | 0.00 | 55 | 1016.9 |
| 20260906143140 | 31 | 278 | 0.0 | 1.6 | 0.00 | 0.00 | 0.00 | 55 | 1017.1 |
| 20260906142639 | 31 | 278 | 3.2 | 3.2 | 0.00 | 0.00 | 0.00 | 56 | 1017.0 |
| 20260906142134 | 31 | 242 | 1.6 | 1.6 | 0.00 | 0.00 | 0.00 | 56 | 1017.0 |
| 20260906141633 | 31 | 242 | 0.0 | 3.2 | 0.00 | 0.00 | 0.00 | 56 | 1016.8 |
| 20260906141129 | 31 | 232 | 0.0 | 0.0 | 0.00 | 0.00 | 0.00 | 55 | 1016.9 |
| 20260906140628 | 31 | 232 | 0.0 | 1.6 | 0.00 | 0.00 | 0.00 | 56 | 1016.9 |
| 20260906140123 | 30 | 232 | 3.2 | 3.2 | 0.00 | 0.00 | 0.00 | 57 | 1016.8 |
| 20260906135620 | 30 | 110 | 1.6 | 6.4 | 0.00 | 0.00 | 0.00 | 58 | 1016.7 |
| 20260906135116 | 30 | 100 | 1.6 | 1.6 | 0.00 | 0.00 | 0.00 | 59 | 1016.7 |
| 20260906134611 | 29 | 244 | 1.6 | 3.2 | 0.00 | 0.00 | 0.00 | 61 | 1016.7 |
| 20260906134106 | 28 | 257 | 0.0 | 3.2 | 0.00 | 0.00 | 0.00 | 61 | 1016.5 |
| 20260906133602 | 28 | 325 | 0.0 | 1.6 | 0.00 | 0.00 | 0.00 | 63 | 1016.5 |
| 20260906133057 | 28 | 216 | 0.0 | 1.6 | 0.00 | 0.00 | 0.00 | 63 | 1016.5 |
| 20260906132552 | 27 | 28 | 0.0 | 0.0 | 0.00 | 0.00 | 0.00 | 66 | 1016.7 |
| 20260906132047 | 27 | 29 | 0.0 | 0.0 | 0.00 | 0.00 | 0.00 | 67 | 1016.5 |
| 20260906131543 | 26 | 29 | 0.0 | 0.0 | 0.00 | 0.00 | 0.00 | 70 | 1016.6 |
| 20260906131038 | 26 | 29 | 0.0 | 0.0 | 0.00 | 0.00 | 0.00 | 72 | 1016.6 |
| 20260906130537 | 25 | 28 | 0.0 | 0.0 | 0.00 | 0.00 | 0.00 | 73 | 1016.3 |
| 20260906130033 | 25 | 28 | 0.0 | 0.0 | 0.00 | 0.00 | 0.00 | 73 | 1016.5 |
| 20260906125531 | 25 | 28 | 0.0 | 0.0 | 0.00 | 0.00 | 0.00 | 74 | 1016.3 |
| 20260906125031 | 25 | 28 | 0.0 | 0.0 | 0.00 | 0.00 | 0.00 | 74 | 1016.3 |
| 20260906124526 | 25 | 28 | 0.0 | 0.0 | 0.00 | 0.00 | 0.00 | 74 | 1016.2 |
| 20260906124021 | 25 | 28 | 0.0 | 0.0 | 0.00 | 0.00 | 0.00 | 75 | 1016.1 |
| 20260906123520 | 24 | 28 | 0.0 | 0.0 | 0.00 | 0.00 | 0.00 | 75 | 1016.1 |
| 20260906123015 | 24 | 28 | 0.0 | 0.0 | 0.00 | 0.00 | 0.00 | 76 | 1016.1 |
| 20260906122509 | 24 | 28 | 0.0 | 0.0 | 0.00 | 0.00 | 0.00 | 76 | 1015.9 |
| 20260906122006 | 24 | 28 | 0.0 | 0.0 | 0.00 | 0.00 | 0.00 | 76 | 1016.1 |
| 20260906121501 | 24 | 28 | 0.0 | 0.0 | 0.00 | 0.00 | 0.00 | 76 | 1015.9 |
| 20260906120958 | 24 | 28 | 0.0 | 0.0 | 0.00 | 0.00 | 0.00 | 76 | 1015.7 |
| 20260906120453 | 24 | 28 | 0.0 | 0.0 | 0.00 | 0.00 | 0.00 | 75 | 1015.8 |
| 20260906115949 | 24 | 28 | 0.0 | 0.0 | 0.00 | 0.00 | 0.00 | 75 | 1015.7 |
| 20260906115444 | 24 | 28 | 0.0 | 0.0 | 0.00 | 0.00 | 0.00 | 75 | 1015.8 |
| 20260906114944 | 24 | 28 | 0.0 | 0.0 | 0.00 | 0.00 | 0.00 | 76 | 1015.7 |
| 20260906114438 | 24 | 28 | 0.0 | 0.0 | 0.00 | 0.00 | 0.00 | 76 | 1015.6 |
| 20260906113935 | 24 | 28 | 0.0 | 0.0 | 0.00 | 0.00 | 0.00 | 76 | 1015.5 |
| 20260906113433 | 24 | 28 | 0.0 | 0.0 | 0.00 | 0.00 | 0.00 | 75 | 1015.4 |
| 20260906112929 | 24 | 28 | 0.0 | 0.0 | 0.00 | 0.00 | 0.00 | 75 | 1015.5 |
| 20260906112424 | 24 | 28 | 0.0 | 0.0 | 0.00 | 0.00 | 0.00 | 75 | 1015.4 |
| 20260906111920 | 24 | 28 | 0.0 | 0.0 | 0.00 | 0.00 | 0.00 | 74 | 1015.1 |
| 20260906111419 | 25 | 28 | 0.0 | 0.0 | 0.00 | 0.00 | 0.00 | 74 | 1015.3 |
| 20260906110914 | 25 | 28 | 0.0 | 0.0 | 0.00 | 0.00 | 0.00 | 74 | 1015.3 |
| 20260906110410 | 25 | 28 | 0.0 | 0.0 | 0.00 | 0.00 | 0.00 | 73 | 1015.2 |
| 20260906105909 | 25 | 28 | 0.0 | 0.0 | 0.00 | 0.00 | 0.00 | 74 | 1015.2 |
| 20260906105404 | 25 | 28 | 0.0 | 0.0 | 0.00 | 0.00 | 0.00 | 73 | 1015.2 |
| 20260906104900 | 25 | 29 | 0.0 | 0.0 | 0.00 | 0.00 | 0.00 | 73 | 1015.1 |
| 20260906104359 | 25 | 29 | 0.0 | 0.0 | 0.00 | 0.00 | 0.00 | 73 | 1015.3 |
| 20260906103858 | 25 | 28 | 0.0 | 0.0 | 0.00 | 0.00 | 0.00 | 73 | 1015.2 |
| 20260906103356 | 25 | 28 | 0.0 | 0.0 | 0.00 | 0.00 | 0.00 | 73 | 1014.9 |
| 20260906102852 | 25 | 28 | 0.0 | 0.0 | 0.00 | 0.00 | 0.00 | 72 | 1015.1 |
| 20260906102351 | 25 | 28 | 0.0 | 0.0 | 0.00 | 0.00 | 0.00 | 72 | 1015.1 |
| 20260906101846 | 25 | 28 | 0.0 | 0.0 | 0.00 | 0.00 | 0.00 | 73 | 1015.1 |
| 20260906101341 | 25 | 28 | 0.0 | 0.0 | 0.00 | 0.00 | 0.00 | 72 | 1015.0 |
| 20260906100837 | 25 | 28 | 0.0 | 0.0 | 0.00 | 0.00 | 0.00 | 72 | 1014.9 |
| 20260906100336 | 25 | 29 | 0.0 | 0.0 | 0.00 | 0.00 | 0.00 | 72 | 1014.9 |
| 20260906095831 | 25 | 29 | 0.0 | 0.0 | 0.00 | 0.00 | 0.00 | 72 | 1015.0 |
| 20260906095327 | 25 | 28 | 0.0 | 0.0 | 0.00 | 0.00 | 0.00 | 73 | 1015.0 |
| 20260906094826 | 25 | 29 | 0.0 | 0.0 | 0.00 | 0.00 | 0.00 | 72 | 1015.0 |
| 20260906094321 | 25 | 29 | 0.0 | 0.0 | 0.00 | 0.00 | 0.00 | 73 | 1015.0 |
| 20260906093817 | 25 | 28 | 0.0 | 0.0 | 0.00 | 0.00 | 0.00 | 73 | 1014.9 |
| 20260906093313 | 25 | 29 | 0.0 | 0.0 | 0.00 | 0.00 | 0.00 | 73 | 1014.8 |
| 20260906092808 | 25 | 29 | 0.0 | 0.0 | 0.00 | 0.00 | 0.00 | 73 | 1014.8 |
| 20260906092305 | 25 | 28 | 0.0 | 0.0 | 0.00 | 0.00 | 0.00 | 72 | 1015.0 |
| 20260906091758 | 25 | 29 | 0.0 | 0.0 | 0.00 | 0.00 | 0.00 | 72 | 1014.8 |
| 20260906091254 | 25 | 29 | 0.0 | 0.0 | 0.00 | 0.00 | 0.00 | 72 | 1015.0 |
| 20260906090750 | 25 | 29 | 0.0 | 0.0 | 0.00 | 0.00 | 0.00 | 72 | 1014.9 |
| 20260906090249 | 25 | 29 | 0.0 | 0.0 | 0.00 | 0.00 | 0.00 | 72 | 1015.0 |
| 20260906085749 | 25 | 29 | 0.0 | 0.0 | 0.00 | 0.00 | 0.00 | 73 | 1014.9 |
| 20260906085248 | 25 | 29 | 0.0 | 0.0 | 0.00 | 0.00 | 0.00 | 72 | 1015.0 |
| 20260906084742 | 25 | 29 | 0.0 | 0.0 | 0.00 | 0.00 | 0.00 | 72 | 1014.9 |
| 20260906084236 | 26 | 29 | 0.0 | 0.0 | 0.00 | 0.00 | 0.00 | 71 | 1014.8 |
| 20260906083731 | 26 | 29 | 0.0 | 0.0 | 0.00 | 0.00 | 0.00 | 71 | 1014.8 |
| 20260906083227 | 25 | 29 | 0.0 | 0.0 | 0.00 | 0.00 | 0.00 | 70 | 1014.8 |
| 20260906082722 | 26 | 29 | 0.0 | 0.0 | 0.00 | 0.00 | 0.00 | 70 | 1014.6 |
| 20260906082217 | 25 | 29 | 0.0 | 0.0 | 0.00 | 0.00 | 0.00 | 70 | 1014.7 |
| 20260906081713 | 26 | 29 | 0.0 | 0.0 | 0.00 | 0.00 | 0.00 | 70 | 1014.8 |
| 20260906081208 | 26 | 29 | 0.0 | 0.0 | 0.00 | 0.00 | 0.00 | 71 | 1014.7 |
| 20260906080704 | 26 | 29 | 0.0 | 0.0 | 0.00 | 0.00 | 0.00 | 70 | 1014.8 |
| 20260906080200 | 26 | 29 | 0.0 | 0.0 | 0.00 | 0.00 | 0.00 | 69 | 1014.7 |
| 20260906075659 | 26 | 29 | 0.0 | 0.0 | 0.00 | 0.00 | 0.00 | 71 | 1014.6 |
| 20260906075149 | 26 | 29 | 0.0 | 0.0 | 0.00 | 0.00 | 0.00 | 71 | 1014.9 |
| 20260906074644 | 26 | 29 | 0.0 | 0.0 | 0.00 | 0.00 | 0.00 | 70 | 1014.8 |
| 20260906074143 | 26 | 29 | 0.0 | 0.0 | 0.00 | 0.00 | 0.00 | 70 | 1014.8 |
| 20260906073638 | 26 | 29 | 0.0 | 0.0 | 0.00 | 0.00 | 0.00 | 69 | 1014.9 |
| 20260906073134 | 26 | 29 | 0.0 | 0.0 | 0.00 | 0.00 | 0.00 | 69 | 1014.8 |
| 20260906072629 | 26 | 29 | 0.0 | 0.0 | 0.00 | 0.00 | 0.00 | 69 | 1014.8 |
| 20260906072125 | 26 | 29 | 0.0 | 0.0 | 0.00 | 0.00 | 0.00 | 69 | 1014.8 |
| 20260906071621 | 26 | 29 | 0.0 | 0.0 | 0.00 | 0.00 | 0.00 | 69 | 1014.8 |
| 20260906071120 | 26 | 29 | 0.0 | 0.0 | 0.00 | 0.00 | 0.00 | 68 | 1014.9 |
| 20260906070612 | 26 | 29 | 0.0 | 0.0 | 0.00 | 0.00 | 0.00 | 67 | 1014.8 |
| 20260906070107 | 26 | 29 | 0.0 | 0.0 | 0.00 | 0.00 | 0.00 | 67 | 1014.9 |
| 20260906065606 | 26 | 29 | 0.0 | 0.0 | 0.00 | 0.00 | 0.00 | 66 | 1014.8 |
| 20260906065102 | 27 | 29 | 0.0 | 0.0 | 0.00 | 0.00 | 0.00 | 65 | 1014.8 |
| 20260906064557 | 27 | 29 | 0.0 | 0.0 | 0.00 | 0.00 | 0.00 | 65 | 1014.7 |
| 20260906064052 | 27 | 29 | 0.0 | 0.0 | 0.00 | 0.00 | 0.00 | 64 | 1014.9 |
| 20260906063547 | 27 | 29 | 0.0 | 0.0 | 0.00 | 0.00 | 0.00 | 63 | 1014.7 |
| 20260906063043 | 27 | 29 | 0.0 | 0.0 | 0.00 | 0.00 | 0.00 | 63 | 1014.9 |
| 20260906062539 | 27 | 29 | 0.0 | 0.0 | 0.00 | 0.00 | 0.00 | 63 | 1014.9 |
| 20260906062032 | 27 | 29 | 0.0 | 0.0 | 0.00 | 0.00 | 0.00 | 63 | 1014.8 |
| 20260906061529 | 27 | 29 | 0.0 | 0.0 | 0.00 | 0.00 | 0.00 | 61 | 1014.9 |
| 20260906061028 | 27 | 29 | 0.0 | 0.0 | 0.00 | 0.00 | 0.00 | 61 | 1014.9 |
| 20260906060525 | 27 | 29 | 0.0 | 0.0 | 0.00 | 0.00 | 0.00 | 62 | 1014.9 |
| 20260906060021 | 27 | 29 | 0.0 | 0.0 | 0.00 | 0.00 | 0.00 | 63 | 1015.0 |
| 20260906055518 | 28 | 28 | 0.0 | 0.0 | 0.00 | 0.00 | 0.00 | 64 | 1015.0 |
| 20260906055013 | 27 | 29 | 0.0 | 0.0 | 0.00 | 0.00 | 0.00 | 61 | 1014.8 |
| 20260906054513 | 27 | 29 | 0.0 | 0.0 | 0.00 | 0.00 | 0.00 | 63 | 1014.7 |
| 20260906054008 | 27 | 29 | 0.0 | 0.0 | 0.00 | 0.00 | 0.00 | 63 | 1014.7 |
| 20260906053504 | 27 | 29 | 0.0 | 0.0 | 0.00 | 0.00 | 0.00 | 64 | 1014.9 |
| 20260906053000 | 27 | 28 | 0.0 | 0.0 | 0.00 | 0.00 | 0.00 | 64 | 1014.8 |
| 20260906052455 | 27 | 29 | 0.0 | 0.0 | 0.00 | 0.00 | 0.00 | 64 | 1014.3 |
| 20260906051952 | 27 | 29 | 0.0 | 0.0 | 0.00 | 0.00 | 0.00 | 65 | 1014.5 |
| 20260906051447 | 27 | 29 | 0.0 | 0.0 | 0.00 | 0.00 | 0.00 | 65 | 1014.6 |
| 20260906050943 | 27 | 29 | 0.0 | 0.0 | 0.00 | 0.00 | 0.00 | 65 | 1014.5 |
| 20260906050442 | 27 | 29 | 0.0 | 0.0 | 0.00 | 0.00 | 0.00 | 64 | 1014.5 |
| 20260906045942 | 27 | 29 | 0.0 | 0.0 | 0.00 | 0.00 | 0.00 | 64 | 1014.6 |
| 20260906045440 | 27 | 29 | 0.0 | 0.0 | 0.00 | 0.00 | 0.00 | 63 | 1014.4 |
| 20260906044937 | 27 | 29 | 0.0 | 0.0 | 0.00 | 0.00 | 0.00 | 62 | 1014.5 |
| 20260906044432 | 28 | 29 | 0.0 | 0.0 | 0.00 | 0.00 | 0.00 | 61 | 1014.7 |
| 20260906043927 | 28 | 29 | 0.0 | 0.0 | 0.00 | 0.00 | 0.00 | 60 | 1014.5 |
| 20260906043423 | 28 | 29 | 0.0 | 0.0 | 0.00 | 0.00 | 0.00 | 60 | 1014.4 |
| 20260906042919 | 28 | 29 | 0.0 | 0.0 | 0.00 | 0.00 | 0.00 | 59 | 1014.5 |
| 20260906042418 | 28 | 29 | 0.0 | 0.0 | 0.00 | 0.00 | 0.00 | 59 | 1014.5 |
| 20260906041913 | 28 | 29 | 0.0 | 0.0 | 0.00 | 0.00 | 0.00 | 58 | 1014.7 |
| 20260906041409 | 29 | 29 | 0.0 | 0.0 | 0.00 | 0.00 | 0.00 | 57 | 1014.7 |
| 20260906040909 | 30 | 29 | 0.0 | 0.0 | 0.00 | 0.00 | 0.00 | 56 | 1014.6 |
| 20260906040404 | 30 | 28 | 0.0 | 0.0 | 0.00 | 0.00 | 0.00 | 56 | 1014.6 |
| 20260906035859 | 30 | 28 | 0.0 | 0.0 | 0.00 | 0.00 | 0.00 | 55 | 1014.8 |
| 20260906035355 | 30 | 29 | 0.0 | 0.0 | 0.00 | 0.00 | 0.00 | 54 | 1014.5 |
| 20260906034849 | 30 | 28 | 0.0 | 0.0 | 0.00 | 0.00 | 0.00 | 52 | 1014.5 |
| 20260906034344 | 30 | 28 | 0.0 | 0.0 | 0.00 | 0.00 | 0.00 | 53 | 1014.7 |
| 20260906033840 | 31 | 29 | 0.0 | 0.0 | 0.00 | 0.00 | 0.00 | 51 | 1014.6 |
| 20260906033339 | 31 | 28 | 0.0 | 0.0 | 0.00 | 0.00 | 0.00 | 52 | 1014.4 |
| 20260906032836 | 31 | 28 | 0.0 | 0.0 | 0.00 | 0.00 | 0.00 | 51 | 1014.5 |
| 20260906032332 | 31 | 28 | 0.0 | 0.0 | 0.00 | 0.00 | 0.00 | 51 | 1014.5 |
| 20260906031827 | 31 | 28 | 0.0 | 0.0 | 0.00 | 0.00 | 0.00 | 51 | 1014.5 |
| 20260906031322 | 31 | 28 | 0.0 | 0.0 | 0.00 | 0.00 | 0.00 | 50 | 1014.5 |
| 20260906030821 | 31 | 28 | 0.0 | 1.6 | 0.00 | 0.00 | 0.00 | 50 | 1014.5 |
| 20260906030317 | 31 | 28 | 0.0 | 0.0 | 0.00 | 0.00 | 0.00 | 51 | 1014.4 |
| 20260906025817 | 31 | 28 | 0.0 | 0.0 | 0.00 | 0.00 | 0.00 | 50 | 1014.3 |
| 20260906025311 | 31 | 28 | 0.0 | 0.0 | 0.00 | 0.00 | 0.00 | 50 | 1014.4 |
| 20260906024810 | 31 | 28 | 0.0 | 1.6 | 0.00 | 0.00 | 0.00 | 50 | 1014.4 |
| 20260906024304 | 31 | 28 | 0.0 | 0.0 | 0.00 | 0.00 | 0.00 | 51 | 1014.3 |
| 20260906023759 | 31 | 28 | 0.0 | 0.0 | 0.00 | 0.00 | 0.00 | 51 | 1014.2 |
| 20260906023254 | 31 | 28 | 0.0 | 0.0 | 0.00 | 0.00 | 0.00 | 51 | 1014.3 |
| 20260906022750 | 31 | 28 | 0.0 | 0.0 | 0.00 | 0.00 | 0.00 | 52 | 1014.2 |
| 20260906022245 | 31 | 28 | 0.0 | 0.0 | 0.00 | 0.00 | 0.00 | 53 | 1014.0 |
| 20260906021741 | 31 | 28 | 0.0 | 0.0 | 0.00 | 0.00 | 0.00 | 53 | 1014.0 |
| 20260906021240 | 31 | 28 | 0.0 | 0.0 | 0.00 | 0.00 | 0.00 | 52 | 1014.0 |
| 20260906020735 | 31 | 28 | 0.0 | 0.0 | 0.00 | 0.00 | 0.00 | 52 | 1014.0 |
| 20260906020235 | 31 | 28 | 0.0 | 0.0 | 0.00 | 0.00 | 0.00 | 51 | 1013.8 |
| 20260906015730 | 32 | 28 | 0.0 | 0.0 | 0.00 | 0.00 | 0.00 | 50 | 1013.8 |
| 20260906015228 | 32 | 28 | 0.0 | 0.0 | 0.00 | 0.00 | 0.00 | 49 | 1013.7 |
| 20260906014723 | 32 | 28 | 0.0 | 0.0 | 0.00 | 0.00 | 0.00 | 49 | 1013.8 |
| 20260906014219 | 32 | 28 | 0.0 | 0.0 | 0.00 | 0.00 | 0.00 | 48 | 1013.7 |
| 20260906013714 | 33 | 28 | 0.0 | 0.0 | 0.00 | 0.00 | 0.00 | 46 | 1013.8 |
| 20260906013214 | 33 | 28 | 0.0 | 0.0 | 0.00 | 0.00 | 0.00 | 45 | 1013.7 |
| 20260906012709 | 33 | 28 | 0.0 | 0.0 | 0.00 | 0.00 | 0.00 | 44 | 1013.6 |
| 20260906012204 | 33 | 29 | 0.0 | 0.0 | 0.00 | 0.00 | 0.00 | 44 | 1013.5 |
| 20260906011659 | 34 | 29 | 0.0 | 3.2 | 0.00 | 0.00 | 0.00 | 43 | 1013.6 |
| 20260906011154 | 34 | 56 | 0.0 | 0.0 | 0.00 | 0.00 | 0.00 | 43 | 1013.5 |
| 20260906010649 | 34 | 57 | 0.0 | 1.6 | 0.00 | 0.00 | 0.00 | 43 | 1013.4 |
| 20260906010146 | 34 | 322 | 0.0 | 0.0 | 0.00 | 0.00 | 0.00 | 43 | 1013.3 |
| 20260906005645 | 35 | 322 | 1.6 | 1.6 | 0.00 | 0.00 | 0.00 | 43 | 1013.2 |
| 20260906005144 | 35 | 321 | 0.0 | 1.6 | 0.00 | 0.00 | 0.00 | 41 | 1013.3 |
| 20260906004643 | 35 | 321 | 1.6 | 3.2 | 0.00 | 0.00 | 0.00 | 41 | 1013.1 |
| 20260906004139 | 35 | 51 | 3.2 | 3.2 | 0.00 | 0.00 | 0.00 | 41 | 1013.2 |
| 20260906003634 | 35 | 0 | 1.6 | 4.8 | 0.00 | 0.00 | 0.00 | 40 | 1013.2 |
| 20260906003130 | 35 | 1 | 1.6 | 4.8 | 0.00 | 0.00 | 0.00 | 40 | 1013.2 |
| 20260906002625 | 36 | 232 | 0.0 | 1.6 | 0.00 | 0.00 | 0.00 | 40 | 1013.2 |
| 20260906002119 | 36 | 76 | 1.6 | 3.2 | 0.00 | 0.00 | 0.00 | 40 | 1013.2 |
| 20260906001609 | 36 | 71 | 1.6 | 1.6 | 0.00 | 0.00 | 0.00 | 39 | 1013.2 |
| 20260906001108 | 36 | 322 | 0.0 | 1.6 | 0.00 | 0.00 | 0.00 | 39 | 1013.1 |
| 20260906000605 | 36 | 328 | 0.0 | 3.2 | 0.00 | 0.00 | 0.00 | 39 | 1013.1 |
| 20260906000100 | 36 | 316 | 1.6 | 4.8 | 0.00 | 0.00 | 0.00 | 38 | 1013.0 |
| 20260905235559 | 36 | 290 | 0.0 | 6.4 | 0.00 | 0.00 | 0.00 | 38 | 1013.1 |
| 20260905235054 | 37 | 33 | 0.0 | 4.8 | 0.00 | 0.00 | 0.00 | 38 | 1012.8 |
| 20260905234549 | 37 | 58 | 1.6 | 4.8 | 0.00 | 0.00 | 0.00 | 38 | 1013.1 |
| 20260905234044 | 36 | 252 | 1.6 | 3.2 | 0.00 | 0.00 | 0.00 | 37 | 1013.1 |
| 20260905233539 | 36 | 239 | 0.0 | 3.2 | 0.00 | 0.00 | 0.00 | 39 | 1012.8 |
| 20260905233039 | 37 | 63 | 0.0 | 3.2 | 0.00 | 0.00 | 0.00 | 38 | 1012.8 |
| 20260905232534 | 37 | 320 | 3.2 | 6.4 | 0.00 | 0.00 | 0.00 | 39 | 1013.0 |
| 20260905232030 | 37 | 11 | 1.6 | 4.8 | 0.00 | 0.00 | 0.00 | 38 | 1012.6 |
| 20260905231525 | 37 | 46 | 3.2 | 9.7 | 0.00 | 0.00 | 0.00 | 38 | 1012.7 |
| 20260905231021 | 37 | 221 | 0.0 | 4.8 | 0.00 | 0.00 | 0.00 | 38 | 1012.7 |
| 20260905230520 | 37 | 81 | 3.2 | 6.4 | 0.00 | 0.00 | 0.00 | 37 | 1012.6 |
| 20260905230019 | 37 | 221 | 0.0 | 3.2 | 0.00 | 0.00 | 0.00 | 37 | 1012.6 |
| 20260905225514 | 37 | 35 | 1.6 | 4.8 | 0.00 | 0.00 | 0.00 | 38 | 1012.5 |
| 20260905225009 | 37 | 311 | 0.0 | 4.8 | 0.00 | 0.00 | 0.00 | 36 | 1012.7 |
| 20260905224504 | 38 | 24 | 6.4 | 6.4 | 0.00 | 0.00 | 0.00 | 36 | 1012.5 |
| 20260905224003 | 38 | 269 | 1.6 | 4.8 | 0.00 | 0.00 | 0.00 | 36 | 1012.5 |
| 20260905223501 | 38 | 94 | 3.2 | 4.8 | 0.00 | 0.00 | 0.00 | 36 | 1012.4 |
| 20260905222956 | 38 | 260 | 1.6 | 6.4 | 0.00 | 0.00 | 0.00 | 35 | 1012.5 |
| 20260905222456 | 38 | 131 | 0.0 | 3.2 | 0.00 | 0.00 | 0.00 | 34 | 1012.6 |
| 20260905221951 | 38 | 283 | 3.2 | 4.8 | 0.00 | 0.00 | 0.00 | 34 | 1012.5 |
| 20260905221448 | 38 | 179 | 1.6 | 3.2 | 0.00 | 0.00 | 0.00 | 34 | 1012.6 |
| 20260905220944 | 38 | 329 | 1.6 | 4.8 | 0.00 | 0.00 | 0.00 | 35 | 1012.6 |
| 20260905220439 | 39 | 264 | 1.6 | 6.4 | 0.00 | 0.00 | 0.00 | 34 | 1012.7 |
| 20260905215938 | 39 | 357 | 0.0 | 6.4 | 0.00 | 0.00 | 0.00 | 34 | 1012.7 |
| 20260905215434 | 38 | 159 | 1.6 | 11.3 | 0.00 | 0.00 | 0.00 | 34 | 1012.8 |
| 20260905214930 | 38 | 267 | 0.0 | 4.8 | 0.00 | 0.00 | 0.00 | 34 | 1012.8 |
| 20260905214425 | 39 | 20 | 3.2 | 6.4 | 0.00 | 0.00 | 0.00 | 34 | 1013.1 |
| 20260905213920 | 38 | 73 | 1.6 | 14.5 | 0.00 | 0.00 | 0.00 | 35 | 1013.1 |
| 20260905213416 | 38 | 235 | 3.2 | 4.8 | 0.00 | 0.00 | 0.00 | 34 | 1013.0 |
| 20260905212911 | 38 | 263 | 4.8 | 6.4 | 0.00 | 0.00 | 0.00 | 33 | 1013.4 |
| 20260905212406 | 38 | 29 | 1.6 | 12.9 | 0.00 | 0.00 | 0.00 | 36 | 1013.3 |
| 20260905211900 | 38 | 319 | 0.0 | 6.4 | 0.00 | 0.00 | 0.00 | 36 | 1013.5 |
| 20260905211355 | 38 | 88 | 4.8 | 6.4 | 0.00 | 0.00 | 0.00 | 35 | 1013.4 |
| 20260905210852 | 38 | 246 | 6.4 | 11.3 | 0.00 | 0.00 | 0.00 | 35 | 1013.7 |
| 20260905210351 | 38 | 230 | 1.6 | 4.8 | 0.00 | 0.00 | 0.00 | 35 | 1013.5 |
| 20260905205850 | 38 | 54 | 4.8 | 11.3 | 0.00 | 0.00 | 0.00 | 37 | 1013.5 |
| 20260905205345 | 38 | 319 | 3.2 | 11.3 | 0.00 | 0.00 | 0.00 | 36 | 1013.7 |
| 20260905204844 | 38 | 251 | 1.6 | 9.7 | 0.00 | 0.00 | 0.00 | 37 | 1013.6 |
| 20260905204340 | 38 | 30 | 1.6 | 6.4 | 0.00 | 0.00 | 0.00 | 36 | 1013.7 |